Location: Mat�lon
(46.2791°N, 7.1028°E)
Time: 16:14:51
(UTC+00:00)

Cosmos 1937 Rocket - Pass Details

Date: 18 September 2020
Orbit: 747 x 779 km, 74.0° (Epoch: 30 October)

Event Time Altitude Azimuth Distance (km) Brightness Sun altitude
Rises 18:53:18 0° 209° (SSW) 3,234 6.9 -13.9°
Reaches altitude 10° 18:55:42 10° 212° (SSW) 2,307 6.2 -14.3°
Maximum altitude 19:00:54 65° 294° (WNW) 845 4.0 -15.1°
Drops below altitude 10° 19:06:06 10° 17° (NNE) 2,301 6.0 -16.0°
Sets 19:08:30 0° 20° (NNE) 3,226 6.7 -16.4°
